Time,TemperatureF,DewpointF,PressureIn,WindDirection,WindDirectionDegrees,WindSpeedMPH,WindSpeedGustMPH,Humidity,HourlyPrecipIn,Conditions,Clouds,dailyrainin,SoftwareType,DateUTC
2013-01-21 00:16:00,37.7,38.0,30.27,WNW,288,4.0,7.0,99,0.00,,,0.00,weatherlink.com 1.10,2013-01-21 08:16:00,
2013-01-21 00:33:00,37.5,37.0,30.27,NW,312,4.0,9.0,99,0.00,,,0.00,weatherlink.com 1.10,2013-01-21 08:33:00,
2013-01-21 00:46:00,37.3,37.0,30.27,West,275,4.0,9.0,98,0.00,,,0.00,weatherlink.com 1.10,2013-01-21 08:46:00,
2013-01-21 01:01:00,37.5,37.0,30.27,WNW,289,7.0,9.0,99,0.00,,,0.00,weatherlink.com 1.10,2013-01-21 09:01:00,
2013-01-21 01:31:00,37.3,37.0,30.27,WNW,299,3.0,8.0,99,0.00,,,0.00,weatherlink.com 1.10,2013-01-21 09:31:00,
2013-01-21 02:01:00,37.3,37.0,30.28,WNW,283,2.0,7.0,99,0.00,,,0.00,weatherlink.com 1.10,2013-01-21 10:01:00,
2013-01-21 02:31:00,36.9,36.0,30.27,WNW,285,4.0,8.0,98,0.00,,,0.00,weatherlink.com 1.10,2013-01-21 10:31:00,
2013-01-21 02:46:00,37.1,37.0,30.27,WNW,299,5.0,10.0,99,0.00,,,0.00,weatherlink.com 1.10,2013-01-21 10:46:00,
2013-01-21 03:01:00,37.1,37.0,30.26,WNW,291,5.0,8.0,99,0.00,,,0.00,weatherlink.com 1.10,2013-01-21 11:01:00,
2013-01-21 03:31:00,37.1,37.0,30.26,WNW,289,2.0,6.0,99,0.00,,,0.00,weatherlink.com 1.10,2013-01-21 11:31:00,
2013-01-21 03:46:00,37.2,37.0,30.26,WNW,291,3.0,6.0,99,0.00,,,0.00,weatherlink.com 1.10,2013-01-21 11:46:00,
2013-01-21 04:01:00,37.1,37.0,30.25,WNW,291,6.0,6.0,99,0.00,,,0.00,weatherlink.com 1.10,2013-01-21 12:01:00,
2013-01-21 04:16:00,37.0,37.0,30.25,WNW,294,1.0,5.0,99,0.00,,,0.00,weatherlink.com 1.10,2013-01-21 12:16:00,
2013-01-21 04:32:00,37.0,37.0,30.25,WNW,288,3.0,8.0,99,0.00,,,0.00,weatherlink.com 1.10,2013-01-21 12:32:00,
2013-01-21 04:47:00,36.8,37.0,30.24,WNW,286,2.0,7.0,99,0.00,,,0.00,weatherlink.com 1.10,2013-01-21 12:47:00,
2013-01-21 05:17:00,36.7,37.0,30.23,WNW,286,3.0,6.0,99,0.00,,,0.00,weatherlink.com 1.10,2013-01-21 13:17:00,
2013-01-21 05:32:00,36.7,37.0,30.23,WNW,285,2.0,6.0,99,0.00,,,0.00,weatherlink.com 1.10,2013-01-21 13:32:00,
2013-01-21 05:47:00,36.7,37.0,30.23,WNW,286,0.0,6.0,99,0.00,,,0.00,weatherlink.com 1.10,2013-01-21 13:47:00,
2013-01-21 06:02:00,36.8,37.0,30.22,WNW,298,1.0,5.0,99,0.00,,,0.00,weatherlink.com 1.10,2013-01-21 14:02:00,
2013-01-21 06:17:00,36.7,37.0,30.22,WNW,284,5.0,5.0,99,0.00,,,0.00,weatherlink.com 1.10,2013-01-21 14:17:00,
2013-01-21 06:32:00,36.4,36.0,30.22,WNW,282,2.0,6.0,99,0.00,,,0.00,weatherlink.com 1.10,2013-01-21 14:32:00,
2013-01-21 07:02:00,36.5,36.0,30.21,WNW,285,1.0,4.0,99,0.00,,,0.00,weatherlink.com 1.10,2013-01-21 15:02:00,
2013-01-21 07:17:00,36.5,36.0,30.21,WNW,285,2.0,4.0,99,0.00,,,0.00,weatherlink.com 1.10,2013-01-21 15:17:00,
2013-01-21 07:32:00,36.7,37.0,30.21,WNW,287,2.0,4.0,99,0.00,,,0.00,weatherlink.com 1.10,2013-01-21 15:32:00,
2013-01-21 07:47:00,36.8,37.0,30.21,WNW,284,2.0,6.0,99,0.00,,,0.00,weatherlink.com 1.10,2013-01-21 15:47:00,
2013-01-21 08:02:00,36.6,36.0,30.21,WNW,286,0.0,4.0,99,0.00,,,0.00,weatherlink.com 1.10,2013-01-21 16:02:00,
2013-01-21 08:17:00,36.8,37.0,30.21,WNW,290,3.0,4.0,99,0.00,,,0.00,weatherlink.com 1.10,2013-01-21 16:17:00,
2013-01-21 08:32:00,36.8,37.0,30.22,WNW,295,0.0,4.0,99,0.00,,,0.00,weatherlink.com 1.10,2013-01-21 16:32:00,
2013-01-21 08:47:00,36.8,36.0,30.21,WNW,293,0.0,4.0,98,0.01,,,0.01,weatherlink.com 1.10,2013-01-21 16:47:00,
2013-01-21 09:02:00,36.9,36.0,30.22,WNW,288,1.0,5.0,98,0.01,,,0.01,weatherlink.com 1.10,2013-01-21 17:02:00,
2013-01-21 09:17:00,36.9,36.0,30.22,WNW,288,0.0,3.0,98,0.01,,,0.01,weatherlink.com 1.10,2013-01-21 17:17:00,
2013-01-21 09:32:00,37.2,37.0,30.22,WNW,285,0.0,4.0,98,0.01,,,0.01,weatherlink.com 1.10,2013-01-21 17:32:00,
2013-01-21 09:47:00,37.4,37.0,30.23,WNW,292,0.0,5.0,98,0.00,,,0.01,weatherlink.com 1.10,2013-01-21 17:47:00,
2013-01-21 10:02:00,37.6,37.0,30.23,WNW,284,3.0,5.0,98,0.00,,,0.01,weatherlink.com 1.10,2013-01-21 18:02:00,
2013-01-21 10:17:00,37.7,37.0,30.23,WNW,283,4.0,5.0,97,0.00,,,0.01,weatherlink.com 1.10,2013-01-21 18:17:00,
2013-01-21 10:32:00,37.9,37.0,30.23,WNW,289,5.0,6.0,97,0.00,,,0.01,weatherlink.com 1.10,2013-01-21 18:32:00,
2013-01-21 10:47:00,38.0,37.0,30.23,WNW,290,3.0,5.0,97,0.00,,,0.01,weatherlink.com 1.10,2013-01-21 18:47:00,
2013-01-21 11:02:00,38.2,37.0,30.23,WNW,289,0.0,5.0,96,0.00,,,0.01,weatherlink.com 1.10,2013-01-21 19:02:00,
2013-01-21 11:17:00,38.1,37.0,30.23,WNW,289,0.0,4.0,96,0.00,,,0.01,weatherlink.com 1.10,2013-01-21 19:17:00,
2013-01-21 11:32:00,37.9,37.0,30.23,WNW,292,1.0,4.0,96,0.00,,,0.01,weatherlink.com 1.10,2013-01-21 19:32:00,
2013-01-21 11:47:00,37.7,37.0,30.22,WNW,292,1.0,3.0,96,0.00,,,0.01,weatherlink.com 1.10,2013-01-21 19:47:00,
2013-01-21 12:02:00,37.7,37.0,30.22,West,279,2.0,4.0,96,0.00,,,0.01,weatherlink.com 1.10,2013-01-21 20:02:00,
2013-01-21 12:17:00,37.8,37.0,30.21,West,277,4.0,4.0,96,0.00,,,0.01,weatherlink.com 1.10,2013-01-21 20:17:00,
2013-01-21 12:32:00,37.7,36.0,30.20,WNW,294,3.0,5.0,95,0.00,,,0.01,weatherlink.com 1.10,2013-01-21 20:32:00,
2013-01-21 12:47:00,37.7,37.0,30.20,WNW,291,3.0,5.0,96,0.00,,,0.01,weatherlink.com 1.10,2013-01-21 20:47:00,
2013-01-21 13:02:00,37.5,37.0,30.20,West,281,2.0,5.0,96,0.00,,,0.01,weatherlink.com 1.10,2013-01-21 21:02:00,
2013-01-21 13:17:00,37.6,37.0,30.19,WNW,288,2.0,4.0,96,0.00,,,0.01,weatherlink.com 1.10,2013-01-21 21:17:00,
2013-01-21 13:32:00,37.5,37.0,30.19,WNW,296,4.0,7.0,96,0.00,,,0.01,weatherlink.com 1.10,2013-01-21 21:32:00,
2013-01-21 13:47:00,37.7,37.0,30.18,West,281,3.0,6.0,96,0.00,,,0.01,weatherlink.com 1.10,2013-01-21 21:47:00,
2013-01-21 14:02:00,38.3,37.0,30.18,WNW,289,0.0,4.0,95,0.00,,,0.01,weatherlink.com 1.10,2013-01-21 22:02:00,
2013-01-21 14:17:00,38.2,37.0,30.18,West,280,2.0,3.0,95,0.00,,,0.01,weatherlink.com 1.10,2013-01-21 22:17:00,
2013-01-21 14:32:00,37.9,37.0,30.17,WNW,284,3.0,5.0,95,0.00,,,0.01,weatherlink.com 1.10,2013-01-21 22:32:00,
2013-01-21 14:47:00,37.4,36.0,30.16,West,281,3.0,6.0,95,0.00,,,0.01,weatherlink.com 1.10,2013-01-21 22:47:00,
2013-01-21 15:02:00,37.2,36.0,30.16,West,276,1.0,5.0,96,0.00,,,0.01,weatherlink.com 1.10,2013-01-21 23:02:00,
2013-01-21 15:17:00,37.0,36.0,30.16,WNW,287,2.0,4.0,96,0.00,,,0.01,weatherlink.com 1.10,2013-01-21 23:17:00,
2013-01-21 15:32:00,36.9,36.0,30.16,WNW,297,2.0,5.0,96,0.00,,,0.01,weatherlink.com 1.10,2013-01-21 23:32:00,
2013-01-21 15:47:00,36.8,36.0,30.16,WNW,285,0.0,4.0,96,0.00,,,0.01,weatherlink.com 1.10,2013-01-21 23:47:00,
2013-01-21 16:02:00,36.8,36.0,30.15,West,281,0.0,2.0,96,0.00,,,0.01,weatherlink.com 1.10,2013-01-22 00:02:00,
2013-01-21 16:17:00,36.7,36.0,30.15,West,281,0.0,2.0,96,0.00,,,0.01,weatherlink.com 1.10,2013-01-22 00:17:00,
2013-01-21 16:32:00,36.6,36.0,30.15,West,280,0.0,1.0,97,0.00,,,0.01,weatherlink.com 1.10,2013-01-22 00:32:00,
2013-01-21 17:02:00,35.8,35.0,30.15,West,280,0.0,1.0,96,0.00,,,0.01,weatherlink.com 1.10,2013-01-22 01:02:00,
2013-01-21 17:17:00,35.3,34.0,30.14,West,280,0.0,0.0,96,0.00,,,0.01,weatherlink.com 1.10,2013-01-22 01:17:00,
2013-01-21 17:32:00,35.1,34.0,30.14,West,280,0.0,0.0,96,0.00,,,0.01,weatherlink.com 1.10,2013-01-22 01:32:00,
2013-01-21 17:47:00,34.8,34.0,30.15,West,280,0.0,0.0,97,0.00,,,0.01,weatherlink.com 1.10,2013-01-22 01:47:00,
2013-01-21 18:02:00,34.5,34.0,30.14,West,280,0.0,0.0,97,0.00,,,0.01,weatherlink.com 1.10,2013-01-22 02:02:00,
2013-01-21 18:17:00,34.3,34.0,30.14,West,280,0.0,0.0,97,0.00,,,0.01,weatherlink.com 1.10,2013-01-22 02:17:00,
2013-01-21 18:32:00,34.1,33.0,30.13,West,280,0.0,0.0,97,0.00,,,0.01,weatherlink.com 1.10,2013-01-22 02:32:00,
2013-01-21 18:48:00,33.9,33.0,30.14,West,280,0.0,0.0,97,0.00,,,0.01,weatherlink.com 1.10,2013-01-22 02:48:00,
2013-01-21 19:03:00,33.9,33.0,30.14,West,280,0.0,0.0,97,0.00,,,0.01,weatherlink.com 1.10,2013-01-22 03:03:00,
2013-01-21 19:18:00,33.9,33.0,30.14,West,280,0.0,0.0,98,0.00,,,0.01,weatherlink.com 1.10,2013-01-22 03:18:00,
2013-01-21 19:33:00,34.1,34.0,30.14,West,280,0.0,0.0,98,0.00,,,0.01,weatherlink.com 1.10,2013-01-22 03:33:00,
2013-01-21 19:48:00,34.4,34.0,30.14,West,280,0.0,0.0,98,0.00,,,0.01,weatherlink.com 1.10,2013-01-22 03:48:00,
2013-01-21 20:03:00,34.8,34.0,30.15,West,280,0.0,0.0,98,0.00,,,0.01,weatherlink.com 1.10,2013-01-22 04:03:00,
2013-01-21 20:18:00,35.1,35.0,30.15,West,280,0.0,0.0,98,0.00,,,0.01,weatherlink.com 1.10,2013-01-22 04:18:00,
2013-01-21 20:33:00,35.3,35.0,30.15,West,280,0.0,0.0,99,0.00,,,0.01,weatherlink.com 1.10,2013-01-22 04:33:00,
2013-01-21 20:48:00,35.5,35.0,30.14,West,280,0.0,0.0,99,0.00,,,0.01,weatherlink.com 1.10,2013-01-22 04:48:00,
2013-01-21 21:03:00,35.7,35.0,30.15,West,280,0.0,1.0,98,0.00,,,0.01,weatherlink.com 1.10,2013-01-22 05:03:00,
2013-01-21 21:18:00,35.7,36.0,30.15,West,280,0.0,0.0,99,0.00,,,0.01,weatherlink.com 1.10,2013-01-22 05:18:00,
2013-01-21 21:33:00,35.8,36.0,30.14,West,280,0.0,0.0,99,0.00,,,0.01,weatherlink.com 1.10,2013-01-22 05:33:00,
2013-01-21 21:48:00,35.8,35.0,30.14,West,280,0.0,0.0,98,0.00,,,0.01,weatherlink.com 1.10,2013-01-22 05:48:00,
2013-01-21 22:03:00,35.7,35.0,30.15,West,280,0.0,0.0,98,0.00,,,0.01,weatherlink.com 1.10,2013-01-22 06:03:00,
2013-01-21 22:18:00,35.8,35.0,30.15,West,280,0.0,0.0,98,0.00,,,0.01,weatherlink.com 1.10,2013-01-22 06:18:00,
2013-01-21 22:33:00,35.8,35.0,30.14,West,280,0.0,2.0,98,0.00,,,0.01,weatherlink.com 1.10,2013-01-22 06:33:00,
2013-01-21 22:48:00,35.9,35.0,30.14,West,280,0.0,0.0,98,0.00,,,0.01,weatherlink.com 1.10,2013-01-22 06:48:00,
2013-01-21 23:03:00,35.9,35.0,30.15,West,280,0.0,0.0,98,0.00,,,0.01,weatherlink.com 1.10,2013-01-22 07:03:00,
2013-01-21 23:18:00,35.9,35.0,30.16,West,280,0.0,0.0,98,0.00,,,0.01,weatherlink.com 1.10,2013-01-22 07:18:00,
2013-01-21 23:33:00,35.9,35.0,30.15,West,280,0.0,0.0,98,0.00,,,0.01,weatherlink.com 1.10,2013-01-22 07:33:00,
2013-01-21 23:48:00,35.8,35.0,30.14,West,280,0.0,1.0,98,0.00,,,0.01,weatherlink.com 1.10,2013-01-22 07:48:00,